Time,TemperatureF,DewpointF,PressureIn,WindDirection,WindDirectionDegrees,WindSpeedMPH,WindSpeedGustMPH,Humidity,HourlyPrecipIn,Conditions,Clouds,dailyrainin,SoftwareType,DateUTC
2013-04-01 00:02:00,47.2,41.3,29.51,SSE,158,0.0,0.0,80,0.00,,,0.00,WUHU216HW,2013-04-01 07:02:00,
2013-04-01 00:07:00,47.0,41.5,29.51,SE,135,0.0,0.0,81,0.00,,,0.00,WUHU216HW,2013-04-01 07:07:00,
2013-04-01 00:12:00,46.8,41.3,29.51,SE,135,0.0,0.0,81,0.00,,,0.00,WUHU216HW,2013-04-01 07:12:00,
2013-04-01 00:17:00,46.6,41.1,29.51,SE,135,0.0,0.0,81,0.00,,,0.00,WUHU216HW,2013-04-01 07:17:00,
2013-04-01 00:22:00,46.4,41.0,29.51,SE,135,0.0,0.0,81,0.00,,,0.00,WUHU216HW,2013-04-01 07:22:00,
2013-04-01 00:27:00,46.1,40.6,29.51,SE,135,0.0,0.0,81,0.00,,,0.00,WUHU216HW,2013-04-01 07:27:00,
2013-04-01 00:32:00,46.1,41.0,29.51,SE,135,0.0,0.0,82,0.00,,,0.00,WUHU216HW,2013-04-01 07:32:00,
2013-04-01 00:37:00,45.9,40.8,29.51,SE,135,0.0,0.0,82,0.00,,,0.00,WUHU216HW,2013-04-01 07:37:00,
2013-04-01 00:42:00,45.7,40.6,29.51,SE,135,0.0,0.0,82,0.00,,,0.00,WUHU216HW,2013-04-01 07:42:00,
2013-04-01 00:47:00,45.7,40.6,29.51,SE,135,0.0,0.0,82,0.00,,,0.00,WUHU216HW,2013-04-01 07:47:00,
2013-04-01 00:52:00,45.7,40.6,29.51,SE,135,0.0,0.0,82,0.00,,,0.00,WUHU216HW,2013-04-01 07:52:00,
2013-04-01 00:57:00,45.5,40.4,29.52,SE,135,0.0,0.0,82,0.00,,,0.00,WUHU216HW,2013-04-01 07:57:00,
2013-04-01 01:02:00,45.5,40.4,29.52,SE,135,0.0,0.0,82,0.00,,,0.00,WUHU216HW,2013-04-01 08:02:00,
2013-04-01 01:07:00,45.4,40.2,29.52,SE,135,0.0,0.0,82,0.00,,,0.00,WUHU216HW,2013-04-01 08:07:00,
2013-04-01 01:12:00,45.4,40.5,29.52,SE,135,0.0,0.0,83,0.00,,,0.00,WUHU216HW,2013-04-01 08:12:00,
2013-04-01 01:17:00,45.4,40.2,29.52,SE,135,0.0,0.0,82,0.00,,,0.00,WUHU216HW,2013-04-01 08:17:00,
2013-04-01 01:22:00,45.5,40.4,29.53,SE,135,0.0,0.0,82,0.00,,,0.00,WUHU216HW,2013-04-01 08:22:00,
2013-04-01 01:27:00,45.4,40.2,29.53,SE,135,0.0,0.0,82,0.00,,,0.00,WUHU216HW,2013-04-01 08:27:00,
2013-04-01 01:32:00,45.0,39.9,29.53,SE,135,0.0,0.0,82,0.00,,,0.00,WUHU216HW,2013-04-01 08:32:00,
2013-04-01 01:37:00,44.5,39.6,29.53,SE,135,0.0,0.0,83,0.00,,,0.00,WUHU216HW,2013-04-01 08:37:00,
2013-04-01 01:42:00,44.3,39.4,29.53,SE,135,0.0,0.0,83,0.00,,,0.00,WUHU216HW,2013-04-01 08:42:00,
2013-04-01 01:47:00,44.3,39.4,29.53,SE,135,0.0,0.0,83,0.00,,,0.00,WUHU216HW,2013-04-01 08:47:00,
2013-04-01 01:52:00,44.3,39.4,29.53,ESE,113,0.0,0.0,83,0.00,,,0.00,WUHU216HW,2013-04-01 08:52:00,
2013-04-01 01:57:00,44.5,39.6,29.53,ESE,113,0.0,0.0,83,0.00,,,0.00,WUHU216HW,2013-04-01 08:57:00,
2013-04-01 02:02:00,44.3,39.4,29.53,ESE,113,0.0,0.0,83,0.00,,,0.00,WUHU216HW,2013-04-01 09:02:00,
2013-04-01 02:07:00,44.3,39.4,29.53,ESE,113,0.0,0.0,83,0.00,,,0.00,WUHU216HW,2013-04-01 09:07:00,
2013-04-01 02:12:00,44.3,39.4,29.53,ESE,113,0.0,0.0,83,0.00,,,0.00,WUHU216HW,2013-04-01 09:12:00,
2013-04-01 02:18:00,44.3,39.4,29.53,ESE,113,0.0,0.0,83,0.00,,,0.00,WUHU216HW,2013-04-01 09:18:00,
2013-04-01 02:22:00,44.1,39.2,29.53,ESE,113,0.0,0.0,83,0.00,,,0.00,WUHU216HW,2013-04-01 09:22:00,
2013-04-01 02:28:00,43.9,39.1,29.53,ESE,113,0.0,0.0,83,0.00,,,0.00,WUHU216HW,2013-04-01 09:28:00,
2013-04-01 02:33:00,43.9,39.4,29.53,SE,135,0.0,0.0,84,0.00,,,0.00,WUHU216HW,2013-04-01 09:33:00,
2013-04-01 02:38:00,43.9,39.4,29.53,ESE,113,0.0,0.0,84,0.00,,,0.00,WUHU216HW,2013-04-01 09:38:00,
2013-04-01 02:43:00,43.9,39.4,29.54,ESE,113,0.0,0.0,84,0.00,,,0.00,WUHU216HW,2013-04-01 09:43:00,
2013-04-01 02:48:00,43.7,39.3,29.54,SE,135,0.0,0.0,84,0.00,,,0.00,WUHU216HW,2013-04-01 09:48:00,
2013-04-01 02:53:00,43.4,38.9,29.54,SE,135,0.0,0.0,84,0.00,,,0.00,WUHU216HW,2013-04-01 09:53:00,
2013-04-01 02:58:00,43.2,38.7,29.54,ESE,113,0.0,0.0,84,0.00,,,0.00,WUHU216HW,2013-04-01 09:58:00,
2013-04-01 03:03:00,43.0,38.5,29.54,ESE,113,0.0,0.0,84,0.00,,,0.00,WUHU216HW,2013-04-01 10:03:00,
2013-04-01 03:08:00,42.8,38.6,29.54,ESE,113,0.0,0.0,85,0.00,,,0.00,WUHU216HW,2013-04-01 10:08:00,
2013-04-01 03:13:00,42.8,38.6,29.54,ESE,113,0.0,0.0,85,0.00,,,0.00,WUHU216HW,2013-04-01 10:13:00,
2013-04-01 03:18:00,42.8,38.6,29.54,ESE,113,0.0,0.0,85,0.00,,,0.00,WUHU216HW,2013-04-01 10:18:00,
2013-04-01 03:23:00,42.8,38.6,29.53,ESE,113,0.0,0.0,85,0.00,,,0.00,WUHU216HW,2013-04-01 10:23:00,
2013-04-01 03:28:00,42.8,38.6,29.53,SE,135,0.0,0.0,85,0.00,,,0.00,WUHU216HW,2013-04-01 10:28:00,
2013-04-01 03:33:00,42.5,38.3,29.54,SE,135,0.0,0.0,85,0.00,,,0.00,WUHU216HW,2013-04-01 10:33:00,
2013-04-01 03:38:00,42.3,38.1,29.54,SE,135,0.0,0.0,85,0.00,,,0.00,WUHU216HW,2013-04-01 10:38:00,
2013-04-01 03:43:00,42.1,37.9,29.54,ESE,113,0.0,0.0,85,0.00,,,0.00,WUHU216HW,2013-04-01 10:43:00,
2013-04-01 03:48:00,42.1,37.9,29.54,SE,135,0.0,0.0,85,0.00,,,0.00,WUHU216HW,2013-04-01 10:48:00,
2013-04-01 03:53:00,42.1,37.9,29.54,ESE,113,0.0,0.0,85,0.00,,,0.00,WUHU216HW,2013-04-01 10:53:00,
2013-04-01 03:58:00,42.1,37.9,29.54,ESE,113,0.0,0.0,85,0.00,,,0.00,WUHU216HW,2013-04-01 10:58:00,
2013-04-01 04:03:00,42.3,38.1,29.54,ESE,113,0.0,0.0,85,0.00,,,0.00,WUHU216HW,2013-04-01 11:03:00,
2013-04-01 04:08:00,42.5,38.3,29.54,ESE,113,0.0,0.0,85,0.00,,,0.00,WUHU216HW,2013-04-01 11:08:00,
2013-04-01 04:13:00,42.5,38.3,29.54,ESE,113,0.0,0.0,85,0.00,,,0.00,WUHU216HW,2013-04-01 11:13:00,
2013-04-01 04:18:00,42.3,38.1,29.54,ESE,113,0.0,0.0,85,0.00,,,0.00,WUHU216HW,2013-04-01 11:18:00,
2013-04-01 04:23:00,41.9,37.7,29.54,ESE,113,0.0,0.0,85,0.00,,,0.00,WUHU216HW,2013-04-01 11:23:00,
2013-04-01 04:28:00,41.8,37.5,29.54,ESE,113,0.0,0.0,85,0.00,,,0.00,WUHU216HW,2013-04-01 11:28:00,
2013-04-01 04:33:00,41.4,37.2,29.54,ESE,113,0.0,0.0,85,0.00,,,0.00,WUHU216HW,2013-04-01 11:33:00,
2013-04-01 04:38:00,41.4,37.2,29.54,ESE,113,0.0,0.0,85,0.00,,,0.00,WUHU216HW,2013-04-01 11:38:00,
2013-04-01 04:43:00,41.4,37.2,29.54,ESE,113,0.0,0.0,85,0.00,,,0.00,WUHU216HW,2013-04-01 11:43:00,
2013-04-01 04:48:00,41.4,37.2,29.54,ESE,113,0.0,0.0,85,0.00,,,0.00,WUHU216HW,2013-04-01 11:48:00,
2013-04-01 04:53:00,41.4,37.2,29.54,ESE,113,0.0,0.0,85,0.00,,,0.00,WUHU216HW,2013-04-01 11:53:00,
2013-04-01 04:58:00,41.4,37.2,29.54,ESE,113,0.0,0.0,85,0.00,,,0.00,WUHU216HW,2013-04-01 11:58:00,
2013-04-01 05:03:00,41.6,37.4,29.54,ESE,113,0.0,0.0,85,0.00,,,0.00,WUHU216HW,2013-04-01 12:03:00,
2013-04-01 05:08:00,41.8,37.8,29.54,ESE,113,0.0,0.0,86,0.00,,,0.00,WUHU216HW,2013-04-01 12:08:00,
2013-04-01 05:13:00,41.8,37.5,29.54,ESE,113,0.0,0.0,85,0.00,,,0.00,WUHU216HW,2013-04-01 12:13:00,
2013-04-01 05:18:00,41.8,37.5,29.54,ESE,113,0.0,0.0,85,0.00,,,0.00,WUHU216HW,2013-04-01 12:18:00,
2013-04-01 05:23:00,41.8,37.8,29.54,ESE,113,0.0,0.0,86,0.00,,,0.00,WUHU216HW,2013-04-01 12:23:00,
2013-04-01 05:28:00,41.8,37.8,29.55,ESE,113,0.0,0.0,86,0.00,,,0.00,WUHU216HW,2013-04-01 12:28:00,
2013-04-01 05:33:00,41.8,37.5,29.55,ESE,113,0.0,0.0,85,0.00,,,0.00,WUHU216HW,2013-04-01 12:33:00,
2013-04-01 05:38:00,41.8,37.8,29.55,ESE,113,0.0,0.0,86,0.00,,,0.00,WUHU216HW,2013-04-01 12:38:00,
2013-04-01 05:43:00,41.6,38.0,29.55,North,0,0.4,0.7,87,0.00,,,0.00,WUHU216HW,2013-04-01 12:43:00,
2013-04-01 05:48:00,41.4,37.4,29.55,East,90,0.0,0.7,86,0.00,,,0.00,WUHU216HW,2013-04-01 12:48:00,
2013-04-01 05:53:00,41.4,37.4,29.55,East,90,0.0,0.7,86,0.00,,,0.00,WUHU216HW,2013-04-01 12:53:00,
2013-04-01 05:58:00,41.4,37.4,29.55,East,90,0.0,0.2,86,0.00,,,0.00,WUHU216HW,2013-04-01 12:58:00,
2013-04-01 06:03:00,41.6,37.6,29.55,East,90,0.0,0.0,86,0.00,,,0.00,WUHU216HW,2013-04-01 13:03:00,
2013-04-01 06:08:00,41.6,37.6,29.55,East,90,0.0,0.0,86,0.00,,,0.00,WUHU216HW,2013-04-01 13:08:00,
2013-04-01 06:13:00,41.6,37.6,29.56,East,90,0.0,0.0,86,0.00,,,0.00,WUHU216HW,2013-04-01 13:13:00,
2013-04-01 06:18:00,41.4,37.2,29.56,East,90,0.0,0.0,85,0.00,,,0.00,WUHU216HW,2013-04-01 13:18:00,
2013-04-01 06:23:00,41.4,37.4,29.56,East,90,0.0,0.0,86,0.00,,,0.00,WUHU216HW,2013-04-01 13:23:00,
2013-04-01 06:29:00,41.4,37.2,29.56,East,90,0.0,0.0,85,0.00,,,0.00,WUHU216HW,2013-04-01 13:29:00,
2013-04-01 06:34:00,41.4,37.2,29.56,East,90,0.0,0.0,85,0.00,,,0.00,WUHU216HW,2013-04-01 13:34:00,
2013-04-01 06:39:00,41.2,37.0,29.56,East,90,0.0,0.0,85,0.00,,,0.00,WUHU216HW,2013-04-01 13:39:00,
2013-04-01 06:44:00,41.2,37.0,29.56,East,90,0.0,0.4,85,0.00,,,0.00,WUHU216HW,2013-04-01 13:44:00,
2013-04-01 06:49:00,41.2,37.3,29.56,East,90,0.2,0.7,86,0.00,,,0.00,WUHU216HW,2013-04-01 13:49:00,
2013-04-01 06:54:00,41.2,37.3,29.56,East,90,0.0,0.7,86,0.00,,,0.00,WUHU216HW,2013-04-01 13:54:00,
2013-04-01 06:59:00,41.4,37.4,29.56,East,90,0.0,0.0,86,0.00,,,0.00,WUHU216HW,2013-04-01 13:59:00,
2013-04-01 07:04:00,41.4,37.4,29.56,East,90,0.0,0.0,86,0.00,,,0.00,WUHU216HW,2013-04-01 14:04:00,
2013-04-01 07:09:00,41.4,37.4,29.57,ESE,113,0.0,0.7,86,0.00,,,0.00,WUHU216HW,2013-04-01 14:09:00,
2013-04-01 07:14:00,41.4,37.4,29.56,ESE,113,0.0,0.7,86,0.00,,,0.00,WUHU216HW,2013-04-01 14:14:00,
2013-04-01 07:19:00,41.4,37.4,29.56,ESE,113,0.0,0.0,86,0.00,,,0.00,WUHU216HW,2013-04-01 14:19:00,
2013-04-01 07:24:00,41.4,37.4,29.57,ESE,113,0.0,0.0,86,0.00,,,0.00,WUHU216HW,2013-04-01 14:24:00,
2013-04-01 07:29:00,41.2,37.3,29.57,ESE,113,0.0,0.0,86,0.00,,,0.00,WUHU216HW,2013-04-01 14:29:00,
2013-04-01 07:34:00,41.2,37.3,29.57,ESE,113,0.0,0.0,86,0.00,,,0.00,WUHU216HW,2013-04-01 14:34:00,
2013-04-01 07:39:00,41.4,37.4,29.57,ESE,113,0.0,0.0,86,0.00,,,0.00,WUHU216HW,2013-04-01 14:39:00,
2013-04-01 07:44:00,41.6,37.6,29.57,ESE,113,0.0,0.0,86,0.00,,,0.00,WUHU216HW,2013-04-01 14:44:00,
2013-04-01 07:49:00,41.8,38.2,29.57,ESE,113,0.0,0.0,87,0.00,,,0.00,WUHU216HW,2013-04-01 14:49:00,
2013-04-01 07:54:00,41.8,38.2,29.58,ESE,113,0.0,0.0,87,0.00,,,0.00,WUHU216HW,2013-04-01 14:54:00,
2013-04-01 07:59:00,41.9,38.4,29.58,ESE,113,0.0,0.0,87,0.00,,,0.00,WUHU216HW,2013-04-01 14:59:00,
2013-04-01 08:04:00,42.5,38.9,29.58,ESE,113,0.0,0.0,87,0.00,,,0.00,WUHU216HW,2013-04-01 15:04:00,
2013-04-01 08:09:00,42.7,39.1,29.58,ESE,113,0.0,0.0,87,0.00,,,0.00,WUHU216HW,2013-04-01 15:09:00,
2013-04-01 08:14:00,43.0,39.4,29.58,ESE,113,0.0,0.0,87,0.00,,,0.00,WUHU216HW,2013-04-01 15:14:00,
2013-04-01 08:19:00,43.6,40.2,29.58,ESE,113,0.0,0.0,88,0.00,,,0.00,WUHU216HW,2013-04-01 15:19:00,
2013-04-01 08:24:00,43.7,40.4,29.58,ESE,113,0.0,0.0,88,0.00,,,0.00,WUHU216HW,2013-04-01 15:24:00,
2013-04-01 08:29:00,43.9,40.6,29.58,ESE,113,0.0,0.0,88,0.00,,,0.00,WUHU216HW,2013-04-01 15:29:00,
2013-04-01 08:34:00,44.3,41.0,29.59,ESE,113,0.0,0.0,88,0.00,,,0.00,WUHU216HW,2013-04-01 15:34:00,
2013-04-01 08:39:00,44.6,41.3,29.59,ESE,113,0.0,0.0,88,0.00,,,0.00,WUHU216HW,2013-04-01 15:39:00,
2013-04-01 08:44:00,45.0,42.3,29.59,North,0,0.4,0.7,90,0.00,,,0.00,WUHU216HW,2013-04-01 15:44:00,
2013-04-01 08:49:00,45.4,42.0,29.59,North,0,0.0,0.7,88,0.00,,,0.00,WUHU216HW,2013-04-01 15:49:00,
2013-04-01 08:54:00,45.7,42.4,29.59,North,0,0.0,0.4,88,0.00,,,0.00,WUHU216HW,2013-04-01 15:54:00,
2013-04-01 08:59:00,46.3,43.3,29.59,North,0,0.0,0.0,89,0.00,,,0.00,WUHU216HW,2013-04-01 15:59:00,
2013-04-01 09:04:00,46.6,43.7,29.59,North,0,0.0,0.0,89,0.00,,,0.00,WUHU216HW,2013-04-01 16:04:00,
2013-04-01 09:09:00,47.2,44.2,29.59,SW,225,0.2,0.9,89,0.00,,,0.00,WUHU216HW,2013-04-01 16:09:00,
2013-04-01 09:14:00,47.5,44.5,29.59,SW,225,0.0,1.1,89,0.00,,,0.00,WUHU216HW,2013-04-01 16:14:00,
2013-04-01 09:19:00,47.9,44.8,29.60,NW,315,0.4,1.1,89,0.00,,,0.00,WUHU216HW,2013-04-01 16:19:00,
2013-04-01 09:24:00,47.9,45.2,29.60,NW,315,1.3,1.3,90,0.00,,,0.00,WUHU216HW,2013-04-01 16:24:00,
2013-04-01 09:29:00,48.2,45.5,29.60,NNW,338,0.4,1.8,90,0.00,,,0.00,WUHU216HW,2013-04-01 16:29:00,
2013-04-01 09:34:00,48.2,45.2,29.60,NNW,338,0.0,1.8,89,0.00,,,0.00,WUHU216HW,2013-04-01 16:34:00,
2013-04-01 09:39:00,48.4,45.1,29.60,SE,135,0.0,0.7,88,0.00,,,0.00,WUHU216HW,2013-04-01 16:39:00,
2013-04-01 09:44:00,48.8,45.4,29.60,SE,135,0.0,0.7,88,0.00,,,0.00,WUHU216HW,2013-04-01 16:44:00,
2013-04-01 09:49:00,49.0,45.5,29.60,SE,135,0.0,0.0,88,0.00,,,0.00,WUHU216HW,2013-04-01 16:49:00,
2013-04-01 09:54:00,49.3,45.9,29.60,SSW,203,0.0,0.4,88,0.00,,,0.00,WUHU216HW,2013-04-01 16:54:00,
2013-04-01 09:59:00,49.9,46.1,29.60,SSE,158,0.0,0.4,87,0.00,,,0.00,WUHU216HW,2013-04-01 16:59:00,
2013-04-01 10:04:00,50.0,46.3,29.61,ESE,113,0.0,0.0,87,0.00,,,0.00,WUHU216HW,2013-04-01 17:04:00,
2013-04-01 10:09:00,50.2,46.1,29.61,West,270,1.1,1.1,86,0.00,,,0.00,WUHU216HW,2013-04-01 17:09:00,
2013-04-01 10:14:00,50.4,46.6,29.61,East,90,0.2,1.8,87,0.00,,,0.00,WUHU216HW,2013-04-01 17:14:00,
2013-04-01 10:19:00,50.6,46.4,29.61,SE,135,0.0,1.8,86,0.00,,,0.00,WUHU216HW,2013-04-01 17:19:00,
2013-04-01 10:24:00,50.8,46.6,29.61,ENE,68,1.6,1.6,86,0.00,,,0.00,WUHU216HW,2013-04-01 17:24:00,
2013-04-01 10:29:00,50.9,46.8,29.61,NE,45,0.0,1.6,86,0.00,,,0.00,WUHU216HW,2013-04-01 17:29:00,
2013-04-01 10:34:00,51.1,47.0,29.61,SSE,158,0.2,1.6,86,0.00,,,0.00,WUHU216HW,2013-04-01 17:34:00,
2013-04-01 10:39:00,51.1,47.0,29.61,ENE,68,0.7,0.9,86,0.00,,,0.00,WUHU216HW,2013-04-01 17:39:00,
2013-04-01 10:44:00,51.1,47.0,29.61,SE,135,0.0,0.9,86,0.00,,,0.00,WUHU216HW,2013-04-01 17:44:00,
2013-04-01 10:49:00,51.5,47.1,29.61,ESE,113,0.0,1.1,85,0.00,,,0.00,WUHU216HW,2013-04-01 17:49:00,
2013-04-01 10:54:00,51.5,47.1,29.61,WSW,248,0.4,1.8,85,0.00,,,0.00,WUHU216HW,2013-04-01 17:54:00,
2013-04-01 10:59:00,51.7,47.3,29.61,SE,135,0.4,1.8,85,0.00,,,0.00,WUHU216HW,2013-04-01 17:59:00,
2013-04-01 11:04:00,51.8,47.4,29.61,SE,135,0.0,1.1,85,0.00,,,0.00,WUHU216HW,2013-04-01 18:04:00,
2013-04-01 11:09:00,51.8,47.4,29.61,SE,135,0.0,1.1,85,0.00,,,0.00,WUHU216HW,2013-04-01 18:09:00,
2013-04-01 11:14:00,52.0,47.4,29.61,SSE,158,0.0,0.7,84,0.00,,,0.00,WUHU216HW,2013-04-01 18:14:00,
2013-04-01 11:19:00,52.2,47.5,29.61,SE,135,0.0,0.0,84,0.00,,,0.00,WUHU216HW,2013-04-01 18:19:00,
2013-04-01 11:24:00,52.2,47.5,29.61,NW,315,0.0,1.3,84,0.00,,,0.00,WUHU216HW,2013-04-01 18:24:00,
2013-04-01 11:29:00,52.2,47.2,29.61,NNW,338,0.0,2.0,83,0.00,,,0.00,WUHU216HW,2013-04-01 18:29:00,
2013-04-01 11:34:00,52.2,47.2,29.62,SE,135,0.7,2.0,83,0.00,,,0.00,WUHU216HW,2013-04-01 18:34:00,
2013-04-01 11:39:00,52.4,47.3,29.62,SSE,158,0.0,1.6,83,0.00,,,0.00,WUHU216HW,2013-04-01 18:39:00,
2013-04-01 11:44:00,52.6,47.5,29.62,SE,135,2.0,3.4,83,0.00,,,0.00,WUHU216HW,2013-04-01 18:44:00,
2013-04-01 11:49:00,52.7,47.7,29.62,ESE,113,1.1,3.4,83,0.00,,,0.00,WUHU216HW,2013-04-01 18:49:00,
2013-04-01 11:54:00,52.9,47.9,29.62,SE,135,1.3,2.0,83,0.00,,,0.00,WUHU216HW,2013-04-01 18:54:00,
2013-04-01 11:59:00,52.9,47.6,29.62,SSE,158,1.6,2.0,82,0.00,,,0.00,WUHU216HW,2013-04-01 18:59:00,
2013-04-01 12:04:00,53.1,47.8,29.62,ESE,113,0.9,1.8,82,0.00,,,0.00,WUHU216HW,2013-04-01 19:04:00,
2013-04-01 12:09:00,53.1,47.8,29.62,NNE,23,2.2,2.2,82,0.00,,,0.00,WUHU216HW,2013-04-01 19:09:00,
2013-04-01 12:14:00,53.3,48.0,29.62,SSE,158,1.1,2.5,82,0.00,,,0.00,WUHU216HW,2013-04-01 19:14:00,
2013-04-01 12:19:00,53.3,48.0,29.62,ESE,113,2.0,4.5,82,0.00,,,0.00,WUHU216HW,2013-04-01 19:19:00,
2013-04-01 12:24:00,53.3,48.0,29.62,South,180,1.1,4.5,82,0.00,,,0.00,WUHU216HW,2013-04-01 19:24:00,
2013-04-01 12:29:00,53.5,48.2,29.62,SSE,158,1.6,2.9,82,0.00,,,0.00,WUHU216HW,2013-04-01 19:29:00,
2013-04-01 12:34:00,53.5,47.8,29.62,ESE,113,1.8,4.5,81,0.00,,,0.00,WUHU216HW,2013-04-01 19:34:00,
2013-04-01 12:39:00,53.5,47.8,29.62,SE,135,2.7,4.5,81,0.00,,,0.00,WUHU216HW,2013-04-01 19:39:00,
2013-04-01 12:44:00,53.6,48.0,29.62,SSE,158,1.6,4.0,81,0.00,,,0.00,WUHU216HW,2013-04-01 19:44:00,
2013-04-01 12:49:00,53.6,48.0,29.62,SE,135,1.3,3.8,81,0.00,,,0.00,WUHU216HW,2013-04-01 19:49:00,
2013-04-01 12:54:00,53.8,48.2,29.62,SE,135,1.1,3.1,81,0.00,,,0.00,WUHU216HW,2013-04-01 19:54:00,
2013-04-01 12:59:00,54.0,48.1,29.62,SE,135,2.5,3.1,80,0.00,,,0.00,WUHU216HW,2013-04-01 19:59:00,
2013-04-01 13:04:00,54.2,48.2,29.61,SW,225,1.8,3.1,80,0.00,,,0.00,WUHU216HW,2013-04-01 20:04:00,
2013-04-01 13:09:00,54.4,48.3,29.61,WSW,248,2.5,3.4,80,0.00,,,0.00,WUHU216HW,2013-04-01 20:09:00,
2013-04-01 13:14:00,54.5,48.2,29.61,SW,225,1.3,3.4,79,0.00,,,0.00,WUHU216HW,2013-04-01 20:14:00,
2013-04-01 13:19:00,54.5,48.2,29.61,SSW,203,1.1,3.8,79,0.00,,,0.00,WUHU216HW,2013-04-01 20:19:00,
2013-04-01 13:24:00,54.7,48.3,29.62,West,270,1.8,3.8,79,0.00,,,0.00,WUHU216HW,2013-04-01 20:24:00,
2013-04-01 13:29:00,54.9,48.9,29.62,SSW,203,0.2,2.2,80,0.00,,,0.00,WUHU216HW,2013-04-01 20:29:00,
2013-04-01 13:34:00,55.1,48.7,29.62,SSE,158,1.1,2.5,79,0.00,,,0.00,WUHU216HW,2013-04-01 20:34:00,
2013-04-01 13:39:00,55.1,48.3,29.62,South,180,0.9,4.0,78,0.00,,,0.00,WUHU216HW,2013-04-01 20:39:00,
2013-04-01 13:44:00,55.4,48.6,29.62,SE,135,3.1,4.0,78,0.00,,,0.00,WUHU216HW,2013-04-01 20:44:00,
2013-04-01 13:49:00,55.4,48.6,29.61,SW,225,0.7,3.4,78,0.00,,,0.00,WUHU216HW,2013-04-01 20:49:00,
2013-04-01 13:54:00,55.6,49.1,29.62,ESE,113,2.0,5.4,79,0.00,,,0.00,WUHU216HW,2013-04-01 20:54:00,
2013-04-01 13:59:00,55.8,49.3,29.62,SSE,158,0.9,5.4,79,0.00,,,0.00,WUHU216HW,2013-04-01 20:59:00,
2013-04-01 14:04:00,55.8,49.0,29.62,SE,135,1.3,2.9,78,0.00,,,0.00,WUHU216HW,2013-04-01 21:04:00,
2013-04-01 14:09:00,56.2,49.7,29.62,South,180,0.4,3.8,79,0.00,,,0.00,WUHU216HW,2013-04-01 21:09:00,
2013-04-01 14:14:00,56.5,49.7,29.62,South,180,2.0,5.4,78,0.00,,,0.00,WUHU216HW,2013-04-01 21:14:00,
2013-04-01 14:19:00,56.7,49.1,29.62,South,180,2.0,5.4,76,0.00,,,0.00,WUHU216HW,2013-04-01 21:19:00,
2013-04-01 14:24:00,56.9,49.7,29.62,SE,135,1.1,4.3,77,0.00,,,0.00,WUHU216HW,2013-04-01 21:24:00,
2013-04-01 14:29:00,57.1,49.9,29.61,SSW,203,0.9,2.7,77,0.00,,,0.00,WUHU216HW,2013-04-01 21:29:00,
2013-04-01 14:34:00,57.2,50.0,29.61,SE,135,0.9,2.5,77,0.00,,,0.00,WUHU216HW,2013-04-01 21:34:00,
2013-04-01 14:39:00,57.2,50.0,29.61,SE,135,0.4,2.9,77,0.00,,,0.00,WUHU216HW,2013-04-01 21:39:00,
2013-04-01 14:44:00,57.4,49.9,29.61,West,270,1.3,2.9,76,0.00,,,0.00,WUHU216HW,2013-04-01 21:44:00,
2013-04-01 14:49:00,57.4,49.9,29.62,SSE,158,1.1,2.0,76,0.00,,,0.00,WUHU216HW,2013-04-01 21:49:00,
2013-04-01 14:54:00,57.4,49.9,29.61,SE,135,0.0,1.8,76,0.00,,,0.00,WUHU216HW,2013-04-01 21:54:00,
2013-04-01 14:59:00,57.4,49.9,29.61,SSE,158,0.2,2.5,76,0.00,,,0.00,WUHU216HW,2013-04-01 21:59:00,
2013-04-01 15:04:00,57.6,50.0,29.62,SSE,158,0.7,2.5,76,0.00,,,0.00,WUHU216HW,2013-04-01 22:04:00,
2013-04-01 15:09:00,57.6,50.0,29.61,SSW,203,0.2,1.6,76,0.00,,,0.00,WUHU216HW,2013-04-01 22:09:00,
2013-04-01 15:14:00,57.6,50.0,29.61,SSW,203,0.9,1.6,76,0.00,,,0.00,WUHU216HW,2013-04-01 22:14:00,
2013-04-01 15:19:00,57.6,50.0,29.61,SE,135,1.1,1.6,76,0.00,,,0.00,WUHU216HW,2013-04-01 22:19:00,
2013-04-01 15:24:00,58.0,50.0,29.61,SE,135,1.1,4.3,75,0.00,,,0.00,WUHU216HW,2013-04-01 22:24:00,
2013-04-01 15:29:00,58.1,50.2,29.61,ESE,113,0.0,4.3,75,0.00,,,0.00,WUHU216HW,2013-04-01 22:29:00,
2013-04-01 15:34:00,58.5,50.6,29.61,South,180,1.8,2.2,75,0.00,,,0.00,WUHU216HW,2013-04-01 22:34:00,
2013-04-01 15:39:00,58.9,50.2,29.61,SSE,158,2.2,3.4,73,0.00,,,0.00,WUHU216HW,2013-04-01 22:39:00,
2013-04-01 15:44:00,58.9,49.9,29.61,West,270,0.9,3.4,72,0.00,,,0.00,WUHU216HW,2013-04-01 22:44:00,
2013-04-01 15:49:00,58.9,50.2,29.61,SE,135,2.7,2.9,73,0.00,,,0.00,WUHU216HW,2013-04-01 22:49:00,
2013-04-01 15:54:00,59.0,50.4,29.61,SSE,158,0.4,3.4,73,0.00,,,0.00,WUHU216HW,2013-04-01 22:54:00,
2013-04-01 15:59:00,59.0,50.4,29.61,SE,135,2.2,3.4,73,0.00,,,0.00,WUHU216HW,2013-04-01 22:59:00,
2013-04-01 16:04:00,59.6,50.9,29.61,WNW,293,1.1,3.1,73,0.00,,,0.00,WUHU216HW,2013-04-01 23:04:00,
2013-04-01 16:09:00,59.9,49.8,29.61,SE,135,2.9,3.6,69,0.00,,,0.00,WUHU216HW,2013-04-01 23:09:00,
2013-04-01 16:14:00,60.1,50.0,29.61,SW,225,1.8,3.6,69,0.00,,,0.00,WUHU216HW,2013-04-01 23:14:00,
2013-04-01 16:19:00,60.1,50.0,29.61,NNW,338,0.0,3.6,69,0.00,,,0.00,WUHU216HW,2013-04-01 23:19:00,
2013-04-01 16:24:00,60.1,50.4,29.61,WSW,248,0.0,2.7,70,0.00,,,0.00,WUHU216HW,2013-04-01 23:24:00,
2013-04-01 16:29:00,60.1,49.6,29.61,West,270,0.9,2.7,68,0.00,,,0.00,WUHU216HW,2013-04-01 23:29:00,
2013-04-01 16:34:00,60.1,49.6,29.61,SSW,203,2.7,2.9,68,0.00,,,0.00,WUHU216HW,2013-04-01 23:34:00,
2013-04-01 16:39:00,60.1,50.0,29.61,ESE,113,2.7,4.7,69,0.00,,,0.00,WUHU216HW,2013-04-01 23:39:00,
2013-04-01 16:44:00,60.3,50.1,29.61,WSW,248,1.1,4.7,69,0.00,,,0.00,WUHU216HW,2013-04-01 23:44:00,
2013-04-01 16:49:00,60.5,49.5,29.61,SSE,158,1.8,2.9,67,0.00,,,0.00,WUHU216HW,2013-04-01 23:49:00,
2013-04-01 16:54:00,60.7,48.9,29.61,South,180,4.7,4.7,65,0.00,,,0.00,WUHU216HW,2013-04-01 23:54:00,
2013-04-01 16:59:00,60.5,49.2,29.61,SE,135,1.1,4.7,66,0.00,,,0.00,WUHU216HW,2013-04-01 23:59:00,
2013-04-01 17:04:00,60.5,49.2,29.61,ESE,113,2.2,4.7,66,0.00,,,0.00,WUHU216HW,2013-04-02 00:04:00,
2013-04-01 17:09:00,60.5,48.7,29.61,SE,135,2.5,3.1,65,0.00,,,0.00,WUHU216HW,2013-04-02 00:09:00,
2013-04-01 17:14:00,60.5,48.7,29.61,ESE,113,2.5,3.1,65,0.00,,,0.00,WUHU216HW,2013-04-02 00:14:00,
2013-04-01 17:19:00,60.5,48.7,29.61,SE,135,2.9,3.6,65,0.00,,,0.00,WUHU216HW,2013-04-02 00:19:00,
2013-04-01 17:24:00,60.3,48.5,29.61,SE,135,2.9,5.4,65,0.00,,,0.00,WUHU216HW,2013-04-02 00:24:00,
2013-04-01 17:29:00,60.3,47.7,29.61,SE,135,2.5,5.4,63,0.00,,,0.00,WUHU216HW,2013-04-02 00:29:00,
2013-04-01 17:34:00,60.3,48.5,29.61,SSE,158,1.8,4.7,65,0.00,,,0.00,WUHU216HW,2013-04-02 00:34:00,
2013-04-01 17:39:00,60.3,48.5,29.61,SSE,158,1.8,4.7,65,0.00,,,0.00,WUHU216HW,2013-04-02 00:39:00,
2013-04-01 17:44:00,60.3,48.1,29.61,SE,135,1.8,3.8,64,0.00,,,0.00,WUHU216HW,2013-04-02 00:44:00,
2013-04-01 17:49:00,60.3,48.1,29.61,ENE,68,2.7,3.8,64,0.00,,,0.00,WUHU216HW,2013-04-02 00:49:00,
2013-04-01 17:54:00,60.1,48.3,29.61,SE,135,1.1,3.8,65,0.00,,,0.00,WUHU216HW,2013-04-02 00:54:00,
2013-04-01 17:59:00,60.1,48.3,29.61,SE,135,0.9,3.8,65,0.00,,,0.00,WUHU216HW,2013-04-02 00:59:00,
2013-04-01 18:04:00,60.1,47.9,29.61,SSW,203,1.6,2.7,64,0.00,,,0.00,WUHU216HW,2013-04-02 01:04:00,
2013-04-01 18:09:00,59.6,46.5,29.61,SSW,203,2.2,5.4,62,0.00,,,0.00,WUHU216HW,2013-04-02 01:09:00,
2013-04-01 18:14:00,59.4,46.4,29.61,SSE,158,2.5,5.4,62,0.00,,,0.00,WUHU216HW,2013-04-02 01:14:00,
2013-04-01 18:19:00,59.0,46.5,29.61,SE,135,1.1,4.7,63,0.00,,,0.00,WUHU216HW,2013-04-02 01:19:00,
2013-04-01 18:24:00,58.9,45.5,29.61,SE,135,2.2,5.8,61,0.00,,,0.00,WUHU216HW,2013-04-02 01:24:00,
2013-04-01 18:29:00,58.5,45.9,29.61,East,90,1.8,5.8,63,0.00,,,0.00,WUHU216HW,2013-04-02 01:29:00,
2013-04-01 18:34:00,58.3,46.2,29.61,SE,135,0.2,3.6,64,0.00,,,0.00,WUHU216HW,2013-04-02 01:34:00,
2013-04-01 18:39:00,58.0,45.5,29.62,SW,225,1.8,3.4,63,0.00,,,0.00,WUHU216HW,2013-04-02 01:39:00,
2013-04-01 18:44:00,57.6,45.1,29.62,ESE,113,3.6,5.4,63,0.00,,,0.00,WUHU216HW,2013-04-02 01:44:00,
2013-04-01 18:49:00,57.2,45.2,29.61,SE,135,0.7,5.4,64,0.00,,,0.00,WUHU216HW,2013-04-02 01:49:00,
2013-04-01 18:54:00,56.9,45.2,29.62,SE,135,3.4,3.4,65,0.00,,,0.00,WUHU216HW,2013-04-02 01:54:00,
2013-04-01 18:59:00,56.7,45.0,29.62,ESE,113,0.2,6.5,65,0.00,,,0.00,WUHU216HW,2013-04-02 01:59:00,
2013-04-01 19:04:00,56.3,45.1,29.62,ESE,113,0.9,6.5,66,0.00,,,0.00,WUHU216HW,2013-04-02 02:04:00,
2013-04-01 19:09:00,56.2,44.9,29.62,SE,135,1.1,2.2,66,0.00,,,0.00,WUHU216HW,2013-04-02 02:09:00,
2013-04-01 19:14:00,55.8,45.0,29.62,ESE,113,1.1,1.8,67,0.00,,,0.00,WUHU216HW,2013-04-02 02:14:00,
2013-04-01 19:19:00,55.6,44.8,29.62,South,180,0.4,1.8,67,0.00,,,0.00,WUHU216HW,2013-04-02 02:19:00,
2013-04-01 19:24:00,55.3,44.9,29.62,ESE,113,1.1,1.8,68,0.00,,,0.00,WUHU216HW,2013-04-02 02:24:00,
2013-04-01 19:29:00,55.1,45.1,29.62,ESE,113,0.0,1.3,69,0.00,,,0.00,WUHU216HW,2013-04-02 02:29:00,
2013-04-01 19:34:00,54.7,44.7,29.62,SE,135,1.3,1.6,69,0.00,,,0.00,WUHU216HW,2013-04-02 02:34:00,
2013-04-01 19:39:00,54.4,44.5,29.62,ESE,113,0.0,2.5,69,0.00,,,0.00,WUHU216HW,2013-04-02 02:39:00,
2013-04-01 19:44:00,54.2,44.6,29.62,SE,135,0.0,2.5,70,0.00,,,0.00,WUHU216HW,2013-04-02 02:44:00,
2013-04-01 19:49:00,54.0,44.5,29.62,ESE,113,1.1,1.6,70,0.00,,,0.00,WUHU216HW,2013-04-02 02:49:00,
2013-04-01 19:54:00,53.6,44.1,29.62,ESE,113,0.0,1.6,70,0.00,,,0.00,WUHU216HW,2013-04-02 02:54:00,
2013-04-01 19:59:00,53.6,44.5,29.62,SE,135,0.0,1.1,71,0.00,,,0.00,WUHU216HW,2013-04-02 02:59:00,
2013-04-01 20:04:00,53.3,44.1,29.62,South,180,0.0,0.4,71,0.00,,,0.00,WUHU216HW,2013-04-02 03:04:00,
2013-04-01 20:09:00,52.9,44.2,29.63,SSW,203,0.0,0.0,72,0.00,,,0.00,WUHU216HW,2013-04-02 03:09:00,
2013-04-01 20:14:00,52.6,43.5,29.63,WSW,248,0.2,1.3,71,0.00,,,0.00,WUHU216HW,2013-04-02 03:14:00,
2013-04-01 20:19:00,52.2,43.5,29.63,West,270,0.0,1.3,72,0.00,,,0.00,WUHU216HW,2013-04-02 03:19:00,
2013-04-01 20:24:00,52.0,43.3,29.63,NNE,23,0.0,1.1,72,0.00,,,0.00,WUHU216HW,2013-04-02 03:24:00,
2013-04-01 20:29:00,51.7,43.0,29.63,NNE,23,0.0,0.0,72,0.00,,,0.00,WUHU216HW,2013-04-02 03:29:00,
2013-04-01 20:34:00,51.5,43.1,29.63,NNE,23,0.0,0.0,73,0.00,,,0.00,WUHU216HW,2013-04-02 03:34:00,
2013-04-01 20:39:00,51.3,43.3,29.63,East,90,0.2,1.3,74,0.00,,,0.00,WUHU216HW,2013-04-02 03:39:00,
2013-04-01 20:44:00,50.9,42.9,29.64,SE,135,0.0,1.3,74,0.00,,,0.00,WUHU216HW,2013-04-02 03:44:00,
2013-04-01 20:49:00,50.8,43.1,29.64,WSW,248,0.7,1.3,75,0.00,,,0.00,WUHU216HW,2013-04-02 03:49:00,
2013-04-01 20:54:00,50.4,43.1,29.64,West,270,1.1,1.6,76,0.00,,,0.00,WUHU216HW,2013-04-02 03:54:00,
2013-04-01 20:59:00,50.0,42.8,29.64,East,90,1.1,1.6,76,0.00,,,0.00,WUHU216HW,2013-04-02 03:59:00,
2013-04-01 21:00:00,50.0,43.1,29.64,East,90,1.1,1.6,77,0.00,,,0.00,WUHU216HW,2013-04-02 04:00:00,
2013-04-01 21:05:00,49.9,42.9,29.64,ESE,113,0.4,1.3,77,0.00,,,0.00,WUHU216HW,2013-04-02 04:05:00,
2013-04-01 21:10:00,49.9,43.2,29.65,NE,45,0.4,1.6,78,0.00,,,0.00,WUHU216HW,2013-04-02 04:10:00,
2013-04-01 21:15:00,49.5,43.2,29.65,East,90,0.4,3.4,79,0.00,,,0.00,WUHU216HW,2013-04-02 04:15:00,
2013-04-01 21:20:00,49.3,42.7,29.65,ENE,68,0.0,3.4,78,0.00,,,0.00,WUHU216HW,2013-04-02 04:20:00,
2013-04-01 21:25:00,49.1,42.8,29.65,NE,45,0.0,1.1,79,0.00,,,0.00,WUHU216HW,2013-04-02 04:25:00,
2013-04-01 21:30:00,49.0,42.3,29.65,ESE,113,0.0,1.1,78,0.00,,,0.00,WUHU216HW,2013-04-02 04:30:00,
2013-04-01 21:35:00,49.0,42.7,29.65,ENE,68,0.9,0.9,79,0.00,,,0.00,WUHU216HW,2013-04-02 04:35:00,
2013-04-01 21:40:00,48.8,42.5,29.66,ESE,113,0.9,1.1,79,0.00,,,0.00,WUHU216HW,2013-04-02 04:40:00,
2013-04-01 21:45:00,48.6,42.3,29.66,East,90,0.0,1.1,79,0.00,,,0.00,WUHU216HW,2013-04-02 04:45:00,
2013-04-01 21:50:00,48.4,42.1,29.66,East,90,0.0,0.9,79,0.00,,,0.00,WUHU216HW,2013-04-02 04:50:00,
2013-04-01 21:55:00,48.4,42.1,29.66,ESE,113,0.0,0.0,79,0.00,,,0.00,WUHU216HW,2013-04-02 04:55:00,
2013-04-01 22:00:00,48.2,41.9,29.66,ESE,113,0.0,0.0,79,0.00,,,0.00,WUHU216HW,2013-04-02 05:00:00,
2013-04-01 22:05:00,48.2,41.9,29.66,SE,135,0.0,0.0,79,0.00,,,0.00,WUHU216HW,2013-04-02 05:05:00,
2013-04-01 22:10:00,47.9,41.9,29.66,ESE,113,0.0,0.0,80,0.00,,,0.00,WUHU216HW,2013-04-02 05:10:00,
2013-04-01 22:15:00,47.3,41.5,29.66,ENE,68,0.0,0.0,80,0.00,,,0.00,WUHU216HW,2013-04-02 05:15:00,
2013-04-01 22:20:00,47.2,41.7,29.66,ENE,68,0.0,0.0,81,0.00,,,0.00,WUHU216HW,2013-04-02 05:20:00,
2013-04-01 22:25:00,47.2,41.7,29.66,ENE,68,0.0,0.0,81,0.00,,,0.00,WUHU216HW,2013-04-02 05:25:00,
2013-04-01 22:30:00,47.2,41.3,29.66,ENE,68,0.0,0.0,80,0.00,,,0.00,WUHU216HW,2013-04-02 05:30:00,
2013-04-01 22:35:00,47.2,41.3,29.66,East,90,0.0,0.0,80,0.00,,,0.00,WUHU216HW,2013-04-02 05:35:00,
2013-04-01 22:40:00,47.2,41.3,29.66,East,90,0.0,0.7,80,0.00,,,0.00,WUHU216HW,2013-04-02 05:40:00,
2013-04-01 22:45:00,47.2,41.7,29.66,East,90,0.0,0.7,81,0.00,,,0.00,WUHU216HW,2013-04-02 05:45:00,
2013-04-01 22:50:00,47.0,41.5,29.67,NE,45,0.0,0.7,81,0.00,,,0.00,WUHU216HW,2013-04-02 05:50:00,
2013-04-01 22:55:00,47.0,41.5,29.67,NE,45,0.0,0.4,81,0.00,,,0.00,WUHU216HW,2013-04-02 05:55:00,
2013-04-01 23:00:00,46.8,41.3,29.66,NE,45,0.0,0.0,81,0.00,,,0.00,WUHU216HW,2013-04-02 06:00:00,
2013-04-01 23:05:00,46.8,41.3,29.66,NE,45,0.0,0.0,81,0.00,,,0.00,WUHU216HW,2013-04-02 06:05:00,
2013-04-01 23:10:00,46.6,41.1,29.66,NE,45,0.0,0.0,81,0.00,,,0.00,WUHU216HW,2013-04-02 06:10:00,
2013-04-01 23:15:00,46.6,41.1,29.67,NE,45,0.0,0.0,81,0.00,,,0.00,WUHU216HW,2013-04-02 06:15:00,
2013-04-01 23:20:00,46.6,41.1,29.67,ENE,68,0.0,0.0,81,0.00,,,0.00,WUHU216HW,2013-04-02 06:20:00,
2013-04-01 23:25:00,46.4,41.0,29.67,ENE,68,0.0,0.0,81,0.00,,,0.00,WUHU216HW,2013-04-02 06:25:00,
2013-04-01 23:30:00,46.4,41.3,29.67,ESE,113,0.4,1.6,82,0.00,,,0.00,WUHU216HW,2013-04-02 06:30:00,
2013-04-01 23:35:00,46.4,41.3,29.67,NNW,338,0.0,1.6,82,0.00,,,0.00,WUHU216HW,2013-04-02 06:35:00,
2013-04-01 23:40:00,46.3,41.4,29.67,SSE,158,0.7,2.5,83,0.00,,,0.00,WUHU216HW,2013-04-02 06:40:00,
2013-04-01 23:45:00,46.1,41.2,29.67,SE,135,0.0,2.5,83,0.00,,,0.00,WUHU216HW,2013-04-02 06:45:00,
2013-04-01 23:50:00,46.1,41.2,29.67,SE,135,0.4,1.1,83,0.00,,,0.00,WUHU216HW,2013-04-02 06:50:00,
2013-04-01 23:55:00,46.1,41.2,29.67,ESE,113,0.0,2.9,83,0.00,,,0.00,WUHU216HW,2013-04-02 06:55:00,